Location: Newark
(33.6333°S, 78.8500°W)
Time: 15:32:18
(UTC+00:00)

Tiros 1 despin weight - Pass Details

Date: 26 September 2019
Orbit: 594 x 643 km, 48.2° (Epoch: 15 October)

Event Time Altitude Azimuth Distance (km) Brightness Sun altitude
Rises 03:12:54 0° 294° (WNW) 2,846 - -46.1°
Reaches altitude 10° 03:15:14 10° 288° (WNW) 1,955 - -46.5°
Maximum altitude 03:19:36 48° 213° (SSW) 807 - -47.1°
Drops below altitude 10° 03:24:03 10° 138° (SE) 2,001 - -47.7°
Sets 03:26:28 0° 132° (SE) 2,920 - -48.0°
